Voltar ao catálogo

PSLV R/B

AtivoLEO
NORAD 37842·ROCKET BODY·🇮🇳 India

Lançado Oct 12, 2011 de Satish Dhawan Space Centre

Loading…

Próximas Passagens (próximas 24 horas)

TLE

AtualizadoSource: Space-Track

Época: Sep 14, 2026, 12:56 UTC

1 37842U 11058E   26257.53952306  .00000354  00000-0  34177-4 0  9992
2 37842  19.7951 343.8654 0059136 287.5396  71.8553 14.21858426776285

Acompanhe PSLV R/B em tempo real com AllMySat

Download on the App Store